SP1GDK-10 Weather Reports


time (UTC)temp
F
wind
direction
speed
knots
gust
knots
rain 1hr
in
rain 24hr
in
rain mn
in
humidity
%
barometer
mb
20260507195914 49 0.0 0.0 0.00 0.00 0.00 86 1019.8
20260507194913 49 0.0 0.0 0.00 0.00 0.00 84 1019.7
20260507193916 49 0.0 0.0 0.00 0.00 0.00 83 1019.5
20260507192924 49 0.0 0.0 0.00 0.00 0.00 81 1019.5
20260507191913 49 0.0 0.0 0.00 0.00 0.00 79 1019.4
20260507190914 49 0.0 0.0 0.00 0.00 0.00 76 1019.3
20260507185915 50 0.0 0.0 0.00 0.00 0.00 76 1019.2
20260507184919 50 0.0 0.0 0.00 0.00 0.00 81 1019.2
20260507182914 51 0.0 0.0 0.00 0.00 0.00 79 1018.9
20260507181914 51 0.0 0.0 0.00 0.00 0.00 77 1018.8
20260507180914 51 0.0 0.0 0.00 0.00 0.00 77 1018.7
20260507175914 52 0.0 0.0 0.00 0.00 0.00 76 1018.6
20260507174913 52 0.0 0.0 0.00 0.00 0.00 73 1018.5
20260507170913 53 0.0 0.0 0.00 0.00 0.00 69 1018.3
20260507165912 53 0.0 0.0 0.00 0.00 0.00 67 1018.2
20260507163914 54 0.0 0.0 0.00 0.00 0.00 67 1018.2
20260507162914 53 0.0 0.0 0.00 0.00 0.00 67 1018.2
20260507161915 54 0.0 0.0 0.00 0.00 0.00 67 1018.1
20260507160915 54 0.0 0.0 0.00 0.00 0.00 67 1018.0
20260507155914 54 0.0 0.0 0.00 0.00 0.00 66 1018.0
20260507154912 53 0.0 0.0 0.00 0.00 0.00 66 1017.9
20260507151914 54 0.0 0.0 0.00 0.00 0.00 64 1017.8
20260507150913 54 0.0 0.0 0.00 0.00 0.00 61 1017.8
20260507145914 55 0.0 0.0 0.00 0.00 0.00 57 1017.6
20260507144914 55 0.0 0.0 0.00 0.00 0.00 56 1017.5
20260507143914 55 0.0 0.0 0.00 0.00 0.00 56 1017.4
20260507142913 56 0.0 0.0 0.00 0.00 0.00 54 1017.4
20260507140913 58 0.0 0.0 0.00 0.00 0.00 53 1017.2
20260507135914 58 0.0 0.0 0.00 0.00 0.00 54 1017.4
20260507134913 57 0.0 0.0 0.00 0.00 0.00 53 1017.2
20260507131912 59 0.0 0.0 0.00 0.00 0.00 52 1017.1
20260507125919 61 0.0 0.0 0.00 0.00 0.00 50 1016.9
20260507124913 61 0.0 0.0 0.00 0.00 0.00 51 1016.8
20260507122912 60 0.0 0.0 0.00 0.00 0.00 50 1016.6
20260507120914 59 0.0 0.0 0.00 0.00 0.00 50 1016.6
20260507115913 58 0.0 0.0 0.00 0.00 0.00 44 1016.5
20260507114920 59 0.0 0.0 0.00 0.00 0.00 46 1016.3
20260507113913 61 0.0 0.0 0.00 0.00 0.00 49 1016.3
20260507112912 60 0.0 0.0 0.00 0.00 0.00 53 1016.2
20260507111913 59 0.0 0.0 0.00 0.00 0.00 54 1016.3
20260507110914 59 0.0 0.0 0.00 0.00 0.00 54 1016.2
20260507105914 58 0.0 0.0 0.00 0.00 0.00 54 1016.2
20260507104913 58 0.0 0.0 0.00 0.00 0.00 54 1016.1
20260507103913 58 0.0 0.0 0.00 0.00 0.00 55 1016.1
20260507101912 57 0.0 0.0 0.00 0.00 0.00 57 1016.0
20260507100913 56 0.0 0.0 0.00 0.00 0.00 60 1016.0
20260507095914 58 0.0 0.0 0.00 0.00 0.00 64 1015.9
20260507092912 57 0.0 0.0 0.00 0.00 0.00 64 1015.6
20260507091913 56 0.0 0.0 0.00 0.00 0.00 65 1015.6
20260507085913 56 0.0 0.0 0.00 0.00 0.00 75 1015.6
20260507084914 55 0.0 0.0 0.00 0.00 0.00 77 1015.5
20260507083914 55 0.0 0.0 0.00 0.00 0.00 82 1015.6
20260507082918 54 0.0 0.0 0.00 0.00 0.00 92 1015.5
20260507081913 51 0.0 0.0 0.00 0.00 0.00 99 1015.6
20260507080913 50 0.0 0.0 0.00 0.00 0.00 10 1015.6
20260507075914 51 0.0 0.0 0.00 0.00 0.00 10 1015.5
20260507074913 53 0.0 0.0 0.00 0.00 0.00 10 1015.3
20260507073911 51 0.0 0.0 0.00 0.00 0.00 10 1015.2
20260507071914 50 0.0 0.0 0.00 0.00 0.00 10 1015.1
20260507070914 49 0.0 0.0 0.00 0.00 0.00 10 1015.2
20260507065913 48 0.0 0.0 0.00 0.00 0.00 10 1015.2
20260507064913 48 0.0 0.0 0.00 0.00 0.00 10 1015.1
20260507063918 48 0.0 0.0 0.00 0.00 0.00 10 1014.9
20260507062914 48 0.0 0.0 0.00 0.00 0.00 10 1014.9
20260507061913 48 0.0 0.0 0.00 0.00 0.00 10 1014.9
20260507060912 48 0.0 0.0 0.00 0.00 0.00 10 1014.8
20260507055913 47 0.0 0.0 0.00 0.00 0.00 10 1014.7
20260507054914 47 0.0 0.0 0.00 0.00 0.00 10 1014.6
20260507053914 47 0.0 0.0 0.00 0.00 0.00 10 1014.6
20260507052912 46 0.0 0.0 0.00 0.00 0.00 10 1014.7
20260507051912 47 0.0 0.0 0.00 0.00 0.00 10 1014.5
20260507050919 46 0.0 0.0 0.00 0.00 0.00 10 1014.4
20260507045914 46 0.0 0.0 0.00 0.00 0.00 10 1014.4
20260507044913 46 0.0 0.0 0.00 0.00 0.00 10 1014.3
20260507043912 47 0.0 0.0 0.00 0.00 0.00 10 1014.1
20260507041913 47 0.0 0.0 0.00 0.00 0.00 10 1013.8
20260507040913 47 0.0 0.0 0.00 0.00 0.00 10 1013.7
20260507035912 47 0.0 0.0 0.00 0.00 0.00 10 1013.5
20260507034913 47 0.0 0.0 0.00 0.00 0.00 10 1013.5
20260507033913 47 0.0 0.0 0.00 0.00 0.00 10 1013.6
20260507032913 47 0.0 0.0 0.00 0.00 0.00 10 1013.5
20260507031913 47 0.0 0.0 0.00 0.00 0.00 10 1013.3
20260507030914 47 0.0 0.0 0.00 0.00 0.00 10 1013.2
20260507025913 47 0.0 0.0 0.00 0.00 0.00 10 1013.2
20260507022914 47 0.0 0.0 0.00 0.00 0.00 10 1013.1
20260507021912 47 0.0 0.0 0.00 0.00 0.00 10 1013.0
20260507020917 47 0.0 0.0 0.00 0.00 0.00 10 1012.9
20260507015913 47 0.0 0.0 0.00 0.00 0.00 10 1012.9
20260507014914 47 0.0 0.0 0.00 0.00 0.00 10 1012.9
20260507013914 47 0.0 0.0 0.00 0.00 0.00 10 1012.9
20260507012913 47 0.0 0.0 0.00 0.00 0.00 10 1012.7
20260507011913 47 0.0 0.0 0.00 0.00 0.00 10 1012.5
20260507010913 46 0.0 0.0 0.00 0.00 0.00 10 1012.6
20260507005912 46 0.0 0.0 0.00 0.00 0.00 10 1012.5
20260507004912 46 0.0 0.0 0.00 0.00 0.00 10 1012.4
20260507002911 47 0.0 0.0 0.00 0.00 0.00 10 1012.6
20260507000912 47 0.0 0.0 0.00 0.00 0.00 10 1012.5
20260506235913 46 0.0 0.0 0.00 0.00 0.00 10 1012.4
20260506234913 46 0.0 0.0 0.00 0.00 0.00 10 1012.3
20260506233914 47 0.0 0.0 0.00 0.00 0.00 10 1012.1
20260506232913 47 0.0 0.0 0.00 0.00 0.00 10 1012.3
20260506231913 47 0.0 0.0 0.00 0.00 0.00 10 1012.2
20260506230916 47 0.0 0.0 0.00 0.00 0.00 10 1012.1
20260506225915 47 0.0 0.0 0.00 0.00 0.00 10 1012.1
20260506223912 47 0.0 0.0 0.00 0.00 0.00 10 1012.2
20260506222914 46 0.0 0.0 0.00 0.00 0.00 10 1011.9
20260506221914 46 0.0 0.0 0.00 0.00 0.00 10 1012.0
20260506215912 46 0.0 0.0 0.00 0.00 0.00 10 1012.1
20260506205912 46 0.0 0.0 0.00 0.00 0.00 10 1011.5
20260506203913 46 0.0 0.0 0.00 0.00 0.00 10 1011.4
20260506202913 46 0.0 0.0 0.00 0.00 0.00 10 1011.4
20260506201913 46 0.0 0.0 0.00 0.00 0.00 10 1011.5
20260506200913 46 0.0 0.0 0.00 0.00 0.00 10 1011.4